Year,Month,Day,Hour,Minute,Value (Times are PST for temperature in C)
2011,04,20,00,00,6.00
2011,04,20,00,01,6.00
2011,04,20,00,02,6.00
2011,04,20,00,03,6.00
2011,04,20,00,04,6.00
2011,04,20,00,05,6.00
2011,04,20,00,06,6.00
2011,04,20,00,07,6.00
2011,04,20,00,08,6.00
2011,04,20,00,09,6.00
2011,04,20,00,10,5.90
2011,04,20,00,11,6.00
2011,04,20,00,12,6.00
2011,04,20,00,13,6.00
2011,04,20,00,14,5.90
2011,04,20,00,15,5.90
2011,04,20,00,16,5.90
2011,04,20,00,17,5.90
2011,04,20,00,18,5.90
2011,04,20,00,19,5.90
2011,04,20,00,20,5.90
2011,04,20,00,21,5.90
2011,04,20,00,22,5.90
2011,04,20,00,23,5.90
2011,04,20,00,24,5.90
2011,04,20,00,25,5.90
2011,04,20,00,26,5.90
2011,04,20,00,27,5.90
2011,04,20,00,28,5.90
2011,04,20,00,29,5.90
2011,04,20,00,30,5.90
2011,04,20,00,31,5.90
2011,04,20,00,32,5.90
2011,04,20,00,33,5.80
2011,04,20,00,34,5.80
2011,04,20,00,35,5.80
2011,04,20,00,36,5.80
2011,04,20,00,37,5.80
2011,04,20,00,38,5.80
2011,04,20,00,39,5.80
2011,04,20,00,40,5.80
2011,04,20,00,41,5.80
2011,04,20,00,42,5.80
2011,04,20,00,43,5.80
2011,04,20,00,44,5.70
2011,04,20,00,45,5.70
2011,04,20,00,46,5.70
2011,04,20,00,47,5.70
2011,04,20,00,48,5.70
2011,04,20,00,49,5.70
2011,04,20,00,50,5.70
2011,04,20,00,51,5.70
2011,04,20,00,52,5.70
2011,04,20,00,53,5.70
2011,04,20,00,54,5.70
2011,04,20,00,55,5.70
2011,04,20,00,56,5.60
2011,04,20,00,57,5.60
2011,04,20,00,58,5.60
2011,04,20,00,59,5.60
2011,04,20,01,00,5.60
2011,04,20,01,01,5.60
2011,04,20,01,02,5.60
2011,04,20,01,03,5.60
2011,04,20,01,04,5.60
2011,04,20,01,05,5.60
2011,04,20,01,06,5.50
2011,04,20,01,07,5.60
2011,04,20,01,08,5.60
2011,04,20,01,09,5.60
2011,04,20,01,10,5.60
2011,04,20,01,11,5.60
2011,04,20,01,12,5.60
2011,04,20,01,13,5.50
2011,04,20,01,14,5.50
2011,04,20,01,15,5.50
2011,04,20,01,16,5.50
2011,04,20,01,17,5.50
2011,04,20,01,18,5.40
2011,04,20,01,19,5.40
2011,04,20,01,20,5.40
2011,04,20,01,21,5.40
2011,04,20,01,22,5.40
2011,04,20,01,23,5.40
2011,04,20,01,24,5.40
2011,04,20,01,25,5.40
2011,04,20,01,26,5.40
2011,04,20,01,27,5.40
2011,04,20,01,28,5.40
2011,04,20,01,29,5.30
2011,04,20,01,30,5.30
2011,04,20,01,31,5.30
2011,04,20,01,32,5.30
2011,04,20,01,33,5.30
2011,04,20,01,34,5.30
2011,04,20,01,35,5.30
2011,04,20,01,36,5.30
2011,04,20,01,37,5.30
2011,04,20,01,38,5.20
2011,04,20,01,39,5.20
2011,04,20,01,40,5.20
2011,04,20,01,41,5.20
2011,04,20,01,42,5.20
2011,04,20,01,43,5.20
2011,04,20,01,44,5.20
2011,04,20,01,45,5.10
2011,04,20,01,46,5.10
2011,04,20,01,47,5.10
2011,04,20,01,48,5.10
2011,04,20,01,49,5.10
2011,04,20,01,50,5.10
2011,04,20,01,51,5.10
2011,04,20,01,52,5.10
2011,04,20,01,53,5.10
2011,04,20,01,54,5.10
2011,04,20,01,55,5.10
2011,04,20,01,56,5.00
2011,04,20,01,57,5.00
2011,04,20,01,58,5.00
2011,04,20,01,59,5.00
2011,04,20,02,00,5.00
2011,04,20,02,01,4.90
2011,04,20,02,02,4.90
2011,04,20,02,03,4.90
2011,04,20,02,04,4.90
2011,04,20,02,05,4.90
2011,04,20,02,06,4.90
2011,04,20,02,07,4.90
2011,04,20,02,08,4.90
2011,04,20,02,09,4.80
2011,04,20,02,10,4.80
2011,04,20,02,11,4.80
2011,04,20,02,12,4.80
2011,04,20,02,13,4.80
2011,04,20,02,14,4.80
2011,04,20,02,15,4.80
2011,04,20,02,16,4.80
2011,04,20,02,17,4.80
2011,04,20,02,18,4.80
2011,04,20,02,19,4.80
2011,04,20,02,20,4.80
2011,04,20,02,21,4.80
2011,04,20,02,22,4.70
2011,04,20,02,23,4.70
2011,04,20,02,24,4.70
2011,04,20,02,25,4.70
2011,04,20,02,26,4.70
2011,04,20,02,27,4.70
2011,04,20,02,28,4.70
2011,04,20,02,29,4.70
2011,04,20,02,30,4.60
2011,04,20,02,31,4.60
2011,04,20,02,32,4.60
2011,04,20,02,33,4.60
2011,04,20,02,34,4.60
2011,04,20,02,35,4.60
2011,04,20,02,36,4.60
2011,04,20,02,37,4.60
2011,04,20,02,38,4.60
2011,04,20,02,39,4.60
2011,04,20,02,40,4.60
2011,04,20,02,41,4.60
2011,04,20,02,42,4.60
2011,04,20,02,43,4.60
2011,04,20,02,44,4.60
2011,04,20,02,45,4.60
2011,04,20,02,46,4.60
2011,04,20,02,47,4.60
2011,04,20,02,48,4.60
2011,04,20,02,49,4.60
2011,04,20,02,50,4.60
2011,04,20,02,51,4.50
2011,04,20,02,52,4.50
2011,04,20,02,53,4.50
2011,04,20,02,54,4.50
2011,04,20,02,55,4.50
2011,04,20,02,56,4.50
2011,04,20,02,57,4.50
2011,04,20,02,58,4.50
2011,04,20,02,59,4.50
2011,04,20,03,00,4.40
2011,04,20,03,01,4.40
2011,04,20,03,02,4.40
2011,04,20,03,03,4.30
2011,04,20,03,04,4.30
2011,04,20,03,05,4.20
2011,04,20,03,06,4.20
2011,04,20,03,07,4.10
2011,04,20,03,08,4.10
2011,04,20,03,09,4.00
2011,04,20,03,10,3.90
2011,04,20,03,11,3.90
2011,04,20,03,12,3.80
2011,04,20,03,13,3.80
2011,04,20,03,14,3.80
2011,04,20,03,15,3.80
2011,04,20,03,16,3.70
2011,04,20,03,17,3.70
2011,04,20,03,18,3.70
2011,04,20,03,19,3.70
2011,04,20,03,20,3.70
2011,04,20,03,21,3.60
2011,04,20,03,22,3.60
2011,04,20,03,23,3.60
2011,04,20,03,24,3.50
2011,04,20,03,25,3.40
2011,04,20,03,26,3.40
2011,04,20,03,27,3.40
2011,04,20,03,28,3.30
2011,04,20,03,29,3.30
2011,04,20,03,30,3.30
2011,04,20,03,31,3.30
2011,04,20,03,32,3.20
2011,04,20,03,33,3.20
2011,04,20,03,34,3.20
2011,04,20,03,35,3.20
2011,04,20,03,36,3.20
2011,04,20,03,37,3.10
2011,04,20,03,38,3.10
2011,04,20,03,39,3.10
2011,04,20,03,40,3.00
2011,04,20,03,41,3.00
2011,04,20,03,42,3.00
2011,04,20,03,43,2.90
2011,04,20,03,44,2.90
2011,04,20,03,45,2.90
2011,04,20,03,46,2.80
2011,04,20,03,47,2.80
2011,04,20,03,48,2.80
2011,04,20,03,49,2.80
2011,04,20,03,50,2.70
2011,04,20,03,51,2.70
2011,04,20,03,52,2.70
2011,04,20,03,53,2.60
2011,04,20,03,54,2.60
2011,04,20,03,55,2.60
2011,04,20,03,56,2.60
2011,04,20,03,57,2.60
2011,04,20,03,58,2.60
2011,04,20,03,59,2.60
2011,04,20,04,00,2.50
2011,04,20,04,01,2.50
2011,04,20,04,02,2.50
2011,04,20,04,03,2.50
2011,04,20,04,04,2.40
2011,04,20,04,05,2.40
2011,04,20,04,06,2.40
2011,04,20,04,07,2.40
2011,04,20,04,08,2.40
2011,04,20,04,09,2.30
2011,04,20,04,10,2.30
2011,04,20,04,11,2.30
2011,04,20,04,12,2.30
2011,04,20,04,13,2.30
2011,04,20,04,14,2.30
2011,04,20,04,15,2.30
2011,04,20,04,16,2.30
2011,04,20,04,17,2.30
2011,04,20,04,18,2.30
2011,04,20,04,19,2.30
2011,04,20,04,20,2.20
2011,04,20,04,21,2.20
2011,04,20,04,22,2.20
2011,04,20,04,23,2.20
2011,04,20,04,24,2.20
2011,04,20,04,25,2.20
2011,04,20,04,26,2.20
2011,04,20,04,27,2.20
2011,04,20,04,28,2.10
2011,04,20,04,29,2.10
2011,04,20,04,30,2.10
2011,04,20,04,31,2.10
2011,04,20,04,32,2.10
2011,04,20,04,33,2.10
2011,04,20,04,34,2.10
2011,04,20,04,35,2.10
2011,04,20,04,36,2.10
2011,04,20,04,37,2.10
2011,04,20,04,38,2.00
2011,04,20,04,39,2.00
2011,04,20,04,40,2.00
2011,04,20,04,41,2.00
2011,04,20,04,42,2.00
2011,04,20,04,43,1.90
2011,04,20,04,44,1.90
2011,04,20,04,45,1.90
2011,04,20,04,46,1.90
2011,04,20,04,47,2.00
2011,04,20,04,48,2.00
2011,04,20,04,49,2.00
2011,04,20,04,50,2.00
2011,04,20,04,51,2.00
2011,04,20,04,52,2.00
2011,04,20,04,53,2.10
2011,04,20,04,54,2.10
2011,04,20,04,55,2.10
2011,04,20,04,56,2.10
2011,04,20,04,57,2.10
2011,04,20,04,58,2.10
2011,04,20,04,59,2.10
2011,04,20,05,00,2.10
2011,04,20,05,01,2.10
2011,04,20,05,02,2.20
2011,04,20,05,03,2.20
2011,04,20,05,04,2.20
2011,04,20,05,05,2.20
2011,04,20,05,06,2.30
2011,04,20,05,07,2.30
2011,04,20,05,08,2.30
2011,04,20,05,09,2.30
2011,04,20,05,10,2.40
2011,04,20,05,11,2.40
2011,04,20,05,12,2.40
2011,04,20,05,13,2.40
2011,04,20,05,14,2.50
2011,04,20,05,15,2.50
2011,04,20,05,16,2.60
2011,04,20,05,17,2.60
2011,04,20,05,18,2.60
2011,04,20,05,19,2.60
2011,04,20,05,20,2.60
2011,04,20,05,21,2.60
2011,04,20,05,22,2.60
2011,04,20,05,23,2.60
2011,04,20,05,24,2.60
2011,04,20,05,25,2.50
2011,04,20,05,26,2.50
2011,04,20,05,27,2.40
2011,04,20,05,28,2.40
2011,04,20,05,29,2.40
2011,04,20,05,30,2.40
2011,04,20,05,31,2.30
2011,04,20,05,32,2.30
2011,04,20,05,33,2.20
2011,04,20,05,34,2.20
2011,04,20,05,35,2.20
2011,04,20,05,36,2.20
2011,04,20,05,37,2.10
2011,04,20,05,38,2.10
2011,04,20,05,39,2.10
2011,04,20,05,40,2.10
2011,04,20,05,41,2.10
2011,04,20,05,42,2.10
2011,04,20,05,43,2.10
2011,04,20,05,44,2.10
2011,04,20,05,45,2.10
2011,04,20,05,46,2.20
2011,04,20,05,47,2.20
2011,04,20,05,48,2.20
2011,04,20,05,49,2.20
2011,04,20,05,50,2.20
2011,04,20,05,51,2.20
2011,04,20,05,52,2.20
2011,04,20,05,53,2.20
2011,04,20,05,54,2.20
2011,04,20,05,55,2.20
2011,04,20,05,56,2.20
2011,04,20,05,57,2.20
2011,04,20,05,58,2.20
2011,04,20,05,59,2.10
2011,04,20,06,00,2.10
2011,04,20,06,01,2.10
2011,04,20,06,02,2.10
2011,04,20,06,03,2.10
2011,04,20,06,04,2.00
2011,04,20,06,05,2.00
2011,04,20,06,06,2.00
2011,04,20,06,07,1.90
2011,04,20,06,08,1.90
2011,04,20,06,09,1.90
2011,04,20,06,10,1.90
2011,04,20,06,11,1.90
2011,04,20,06,12,1.90
2011,04,20,06,13,1.80
2011,04,20,06,14,1.80
2011,04,20,06,15,1.80
2011,04,20,06,16,1.80
2011,04,20,06,17,1.80
2011,04,20,06,18,1.80
2011,04,20,06,19,1.80
2011,04,20,06,20,1.80
2011,04,20,06,21,1.80
2011,04,20,06,22,1.80
2011,04,20,06,23,1.80
2011,04,20,06,24,1.80
2011,04,20,06,25,1.80
2011,04,20,06,26,1.70
2011,04,20,06,27,1.70
2011,04,20,06,28,1.70
2011,04,20,06,29,1.70
2011,04,20,06,30,1.70
2011,04,20,06,31,1.70
2011,04,20,06,32,1.70
2011,04,20,06,33,1.70
2011,04,20,06,34,1.70
2011,04,20,06,35,1.70
2011,04,20,06,36,1.70
2011,04,20,06,37,1.70
2011,04,20,06,38,1.70
2011,04,20,06,39,1.80
2011,04,20,06,40,1.80
2011,04,20,06,41,1.80
2011,04,20,06,42,1.80
2011,04,20,06,43,1.70
2011,04,20,06,44,1.70
2011,04,20,06,45,1.70
2011,04,20,06,46,1.70
2011,04,20,06,47,1.70
2011,04,20,06,48,1.70
2011,04,20,06,49,1.70
2011,04,20,06,50,1.70
2011,04,20,06,51,1.70
2011,04,20,06,52,1.70
2011,04,20,06,53,1.70
2011,04,20,06,54,1.70
2011,04,20,06,55,1.70
2011,04,20,06,56,1.70
2011,04,20,06,57,1.70
2011,04,20,06,58,1.70
2011,04,20,06,59,1.70
2011,04,20,07,00,1.70
2011,04,20,07,01,1.70
2011,04,20,07,02,1.80
2011,04,20,07,03,1.80
2011,04,20,07,04,1.80
2011,04,20,07,05,1.90
2011,04,20,07,06,2.00
2011,04,20,07,07,2.00
2011,04,20,07,08,2.10
2011,04,20,07,09,2.20
2011,04,20,07,10,2.20
2011,04,20,07,11,2.30
2011,04,20,07,12,2.30
2011,04,20,07,13,2.30
2011,04,20,07,14,2.30
2011,04,20,07,15,2.40
2011,04,20,07,16,2.40
2011,04,20,07,17,2.40
2011,04,20,07,18,2.40
2011,04,20,07,19,2.40
2011,04,20,07,20,2.40
2011,04,20,07,21,2.40
2011,04,20,07,22,2.40
2011,04,20,07,23,2.40
2011,04,20,07,24,2.40
2011,04,20,07,25,2.40
2011,04,20,07,26,2.40
2011,04,20,07,27,2.40
2011,04,20,07,28,2.40
2011,04,20,07,29,2.50
2011,04,20,07,30,2.50
2011,04,20,07,31,2.50
2011,04,20,07,32,2.50
2011,04,20,07,33,2.60
2011,04,20,07,34,2.60
2011,04,20,07,35,2.60
2011,04,20,07,36,2.60
2011,04,20,07,37,2.70
2011,04,20,07,38,2.70
2011,04,20,07,39,2.70
2011,04,20,07,40,2.70
2011,04,20,07,41,2.80
2011,04,20,07,42,2.80
2011,04,20,07,43,2.80
2011,04,20,07,44,2.80
2011,04,20,07,45,2.80
2011,04,20,07,46,2.90
2011,04,20,07,47,2.90
2011,04,20,07,48,2.90
2011,04,20,07,49,3.00
2011,04,20,07,50,3.00
2011,04,20,07,51,3.00
2011,04,20,07,52,3.10
2011,04,20,07,53,3.10
2011,04,20,07,54,3.10
2011,04,20,07,55,3.20
2011,04,20,07,56,3.20
2011,04,20,07,57,3.30
2011,04,20,07,58,3.30
2011,04,20,07,59,3.30
2011,04,20,08,00,3.30
2011,04,20,08,01,3.40
2011,04,20,08,02,3.40
2011,04,20,08,03,3.50
2011,04,20,08,04,3.50
2011,04,20,08,05,3.60
2011,04,20,08,06,3.60
2011,04,20,08,07,3.70
2011,04,20,08,08,3.70
2011,04,20,08,09,3.70
2011,04,20,08,10,3.80
2011,04,20,08,11,3.80
2011,04,20,08,12,3.80
2011,04,20,08,13,3.90
2011,04,20,08,14,4.00
2011,04,20,08,15,4.00
2011,04,20,08,16,4.10
2011,04,20,08,17,4.20
2011,04,20,08,18,4.20
2011,04,20,08,19,4.30
2011,04,20,08,20,4.30
2011,04,20,08,21,4.30
2011,04,20,08,22,4.40
2011,04,20,08,23,4.50
2011,04,20,08,24,4.50
2011,04,20,08,25,4.60
2011,04,20,08,26,4.60
2011,04,20,08,27,4.70
2011,04,20,08,28,4.70
2011,04,20,08,29,4.70
2011,04,20,08,30,4.70
2011,04,20,08,31,4.70
2011,04,20,08,32,4.80
2011,04,20,08,33,4.80
2011,04,20,08,34,4.80
2011,04,20,08,35,4.80
2011,04,20,08,36,4.80
2011,04,20,08,37,4.80
2011,04,20,08,38,4.80
2011,04,20,08,39,4.80
2011,04,20,08,40,4.80
2011,04,20,08,41,4.80
2011,04,20,08,42,4.80
2011,04,20,08,43,4.80
2011,04,20,08,44,4.80
2011,04,20,08,45,4.80
2011,04,20,08,46,4.80
2011,04,20,08,47,4.90
2011,04,20,08,48,4.90
2011,04,20,08,49,4.90
2011,04,20,08,50,4.90
2011,04,20,08,51,5.00
2011,04,20,08,52,5.00
2011,04,20,08,53,5.10
2011,04,20,08,54,5.10
2011,04,20,08,55,5.10
2011,04,20,08,56,5.20
2011,04,20,08,57,5.20
2011,04,20,08,58,5.20
2011,04,20,08,59,5.20
2011,04,20,09,00,5.20
2011,04,20,09,01,5.20
2011,04,20,09,02,5.20
2011,04,20,09,03,5.20
2011,04,20,09,04,5.20
2011,04,20,09,05,5.30
2011,04,20,09,06,5.30
2011,04,20,09,07,5.30
2011,04,20,09,08,5.30
2011,04,20,09,09,5.30
2011,04,20,09,10,5.40
2011,04,20,09,11,5.40
2011,04,20,09,12,5.40
2011,04,20,09,13,5.40
2011,04,20,09,14,5.40
2011,04,20,09,15,5.40
2011,04,20,09,16,5.40
2011,04,20,09,17,5.40
2011,04,20,09,18,5.40
2011,04,20,09,19,5.40
2011,04,20,09,20,5.40
2011,04,20,09,21,5.40
2011,04,20,09,22,5.40
2011,04,20,09,23,5.40
2011,04,20,09,24,5.40
2011,04,20,09,25,5.50
2011,04,20,09,26,5.50
2011,04,20,09,27,5.60
2011,04,20,09,28,5.60
2011,04,20,09,29,5.60
2011,04,20,09,30,5.60
2011,04,20,09,31,5.60
2011,04,20,09,32,5.70
2011,04,20,09,33,5.70
2011,04,20,09,34,5.70
2011,04,20,09,35,5.70
2011,04,20,09,36,5.80
2011,04,20,09,37,5.80
2011,04,20,09,38,5.80
2011,04,20,09,39,5.90
2011,04,20,09,40,5.90
2011,04,20,09,41,5.90
2011,04,20,09,42,6.00
2011,04,20,09,43,6.00
2011,04,20,09,44,6.00
2011,04,20,09,45,6.10
2011,04,20,09,46,6.10
2011,04,20,09,47,6.10
2011,04,20,09,48,6.10
2011,04,20,09,49,6.10
2011,04,20,09,50,6.20
2011,04,20,09,51,6.20
2011,04,20,09,52,6.20
2011,04,20,09,53,6.20
2011,04,20,09,54,6.30
2011,04,20,09,55,6.30
2011,04,20,09,56,6.30
2011,04,20,09,57,6.30
2011,04,20,09,58,6.30
2011,04,20,09,59,6.40
2011,04,20,10,00,6.40
2011,04,20,10,01,6.40
2011,04,20,10,02,6.40
2011,04,20,10,03,6.40
2011,04,20,10,04,6.40
2011,04,20,10,05,6.40
2011,04,20,10,06,6.40
2011,04,20,10,07,6.50
2011,04,20,10,08,6.60
2011,04,20,10,09,6.60
2011,04,20,10,10,6.60
2011,04,20,10,11,6.70
2011,04,20,10,12,6.70
2011,04,20,10,13,6.60
2011,04,20,10,14,6.70
2011,04,20,10,15,6.70
2011,04,20,10,16,6.70
2011,04,20,10,17,6.70
2011,04,20,10,18,6.70
2011,04,20,10,19,6.70
2011,04,20,10,20,6.70
2011,04,20,10,21,6.70
2011,04,20,10,22,6.80
2011,04,20,10,23,6.90
2011,04,20,10,24,6.90
2011,04,20,10,25,6.90
2011,04,20,10,26,7.00
2011,04,20,10,27,7.00
2011,04,20,10,28,7.10
2011,04,20,10,29,7.10
2011,04,20,10,30,7.20
2011,04,20,10,31,7.20
2011,04,20,10,32,7.20
2011,04,20,10,33,7.20
2011,04,20,10,34,7.30
2011,04,20,10,35,7.40
2011,04,20,10,36,7.40
2011,04,20,10,37,7.40
2011,04,20,10,38,7.40
2011,04,20,10,39,7.40
2011,04,20,10,40,7.50
2011,04,20,10,41,7.50
2011,04,20,10,42,7.60
2011,04,20,10,43,7.60
2011,04,20,10,44,7.70
2011,04,20,10,45,7.80
2011,04,20,10,46,7.80
2011,04,20,10,47,7.80
2011,04,20,10,48,7.80
2011,04,20,10,49,7.80
2011,04,20,10,50,7.80
2011,04,20,10,51,7.70
2011,04,20,10,52,7.70
2011,04,20,10,53,7.70
2011,04,20,10,54,7.70
2011,04,20,10,55,7.70
2011,04,20,10,56,7.70
2011,04,20,10,57,7.70
2011,04,20,10,58,7.70
2011,04,20,10,59,7.70
2011,04,20,11,00,7.60
2011,04,20,11,01,7.70
2011,04,20,11,02,7.70
2011,04,20,11,03,7.70
2011,04,20,11,04,7.70
2011,04,20,11,05,7.70
2011,04,20,11,06,7.80
2011,04,20,11,07,7.80
2011,04,20,11,08,7.80
2011,04,20,11,09,7.80
2011,04,20,11,10,7.80
2011,04,20,11,11,7.80
2011,04,20,11,12,7.80
2011,04,20,11,13,7.80
2011,04,20,11,14,7.80
2011,04,20,11,15,7.80
2011,04,20,11,16,7.80
2011,04,20,11,17,7.80
2011,04,20,11,18,7.80
2011,04,20,11,19,7.80
2011,04,20,11,20,7.80
2011,04,20,11,21,7.80
2011,04,20,11,22,7.80
2011,04,20,11,23,7.80
2011,04,20,11,24,7.80
2011,04,20,11,25,7.90
2011,04,20,11,26,7.90
2011,04,20,11,27,8.00
2011,04,20,11,28,8.00
2011,04,20,11,29,8.10
2011,04,20,11,30,8.10
2011,04,20,11,31,8.20
2011,04,20,11,32,8.20
2011,04,20,11,33,8.20
2011,04,20,11,34,8.20
2011,04,20,11,35,8.20
2011,04,20,11,36,8.30
2011,04,20,11,37,8.30
2011,04,20,11,38,8.30
2011,04,20,11,39,8.30
2011,04,20,11,40,8.30
2011,04,20,11,41,8.30
2011,04,20,11,42,8.30
2011,04,20,11,43,8.30
2011,04,20,11,44,8.30
2011,04,20,11,45,8.40
2011,04,20,11,46,8.40
2011,04,20,11,47,8.50
2011,04,20,11,48,8.50
2011,04,20,11,49,8.60
2011,04,20,11,50,8.60
2011,04,20,11,51,8.70
2011,04,20,11,52,8.70
2011,04,20,11,53,8.70
2011,04,20,11,54,8.70
2011,04,20,11,55,8.70
2011,04,20,11,56,8.70
2011,04,20,11,57,8.70
2011,04,20,11,58,8.70
2011,04,20,11,59,8.80
2011,04,20,12,00,8.80
2011,04,20,12,01,8.80
2011,04,20,12,02,8.70
2011,04,20,12,03,8.70
2011,04,20,12,04,8.60
2011,04,20,12,05,8.60
2011,04,20,12,06,8.50
2011,04,20,12,07,8.50
2011,04,20,12,08,8.40
2011,04,20,12,09,8.40
2011,04,20,12,10,8.40
2011,04,20,12,11,8.40
2011,04,20,12,12,8.30
2011,04,20,12,13,8.30
2011,04,20,12,14,8.30
2011,04,20,12,15,8.40
2011,04,20,12,16,8.40
2011,04,20,12,17,8.50
2011,04,20,12,18,8.50
2011,04,20,12,19,8.50
2011,04,20,12,20,8.60
2011,04,20,12,21,8.60
2011,04,20,12,22,8.60
2011,04,20,12,23,8.60
2011,04,20,12,24,8.60
2011,04,20,12,25,8.60
2011,04,20,12,26,8.60
2011,04,20,12,27,8.70
2011,04,20,12,28,8.70
2011,04,20,12,29,8.80
2011,04,20,12,30,8.80
2011,04,20,12,31,8.90
2011,04,20,12,32,8.90
2011,04,20,12,33,8.90
2011,04,20,12,34,8.90
2011,04,20,12,35,8.80
2011,04,20,12,36,8.80
2011,04,20,12,37,8.80
2011,04,20,12,38,8.80
2011,04,20,12,39,8.90
2011,04,20,12,40,8.90
2011,04,20,12,41,9.00
2011,04,20,12,42,9.00
2011,04,20,12,43,9.00
2011,04,20,12,44,9.00
2011,04,20,12,45,9.10
2011,04,20,12,46,9.10
2011,04,20,12,47,9.10
2011,04,20,12,48,9.20
2011,04,20,12,49,9.10
2011,04,20,12,50,9.10
2011,04,20,12,51,9.10
2011,04,20,12,52,9.10
2011,04,20,12,53,9.10
2011,04,20,12,54,9.10
2011,04,20,12,55,9.10
2011,04,20,12,56,9.10
2011,04,20,12,57,9.10
2011,04,20,12,58,9.20
2011,04,20,12,59,9.20
2011,04,20,13,00,9.20
2011,04,20,13,01,9.30
2011,04,20,13,02,9.30
2011,04,20,13,03,9.30
2011,04,20,13,04,9.40
2011,04,20,13,05,9.40
2011,04,20,13,06,9.40
2011,04,20,13,07,9.40
2011,04,20,13,08,9.40
2011,04,20,13,09,9.40
2011,04,20,13,10,9.40
2011,04,20,13,11,9.40
2011,04,20,13,12,9.40
2011,04,20,13,13,9.40
2011,04,20,13,14,9.30
2011,04,20,13,15,9.20
2011,04,20,13,16,9.20
2011,04,20,13,17,9.10
2011,04,20,13,18,9.10
2011,04,20,13,19,9.00
2011,04,20,13,20,9.00
2011,04,20,13,21,8.90
2011,04,20,13,22,8.90
2011,04,20,13,23,8.90
2011,04,20,13,24,8.90
2011,04,20,13,25,8.80
2011,04,20,13,26,8.80
2011,04,20,13,27,8.80
2011,04,20,13,28,8.80
2011,04,20,13,29,8.80
2011,04,20,13,30,8.80
2011,04,20,13,31,8.80
2011,04,20,13,32,8.80
2011,04,20,13,33,8.90
2011,04,20,13,34,8.90
2011,04,20,13,35,8.90
2011,04,20,13,36,8.90
2011,04,20,13,37,8.90
2011,04,20,13,38,8.90
2011,04,20,13,39,9.00
2011,04,20,13,40,9.00
2011,04,20,13,41,9.00
2011,04,20,13,42,9.10
2011,04,20,13,43,9.10
2011,04,20,13,44,9.20
2011,04,20,13,45,9.10
2011,04,20,13,46,9.10
2011,04,20,13,47,9.10
2011,04,20,13,48,9.20
2011,04,20,13,49,9.20
2011,04,20,13,50,9.20
2011,04,20,13,51,9.20
2011,04,20,13,52,9.20
2011,04,20,13,53,9.20
2011,04,20,13,54,9.20
2011,04,20,13,55,9.20
2011,04,20,13,56,9.30
2011,04,20,13,57,9.30
2011,04,20,13,58,9.30
2011,04,20,13,59,9.30
2011,04,20,14,00,9.30
2011,04,20,14,01,9.40
2011,04,20,14,02,9.50
2011,04,20,14,03,9.50
2011,04,20,14,04,9.60
2011,04,20,14,05,9.60
2011,04,20,14,06,9.60
2011,04,20,14,07,9.50
2011,04,20,14,08,9.50
2011,04,20,14,09,9.40
2011,04,20,14,10,9.40
2011,04,20,14,11,9.30
2011,04,20,14,12,9.30
2011,04,20,14,13,9.40
2011,04,20,14,14,9.40
2011,04,20,14,15,9.50
2011,04,20,14,16,9.60
2011,04,20,14,17,9.60
2011,04,20,14,18,9.60
2011,04,20,14,19,9.60
2011,04,20,14,20,9.60
2011,04,20,14,21,9.50
2011,04,20,14,22,9.50
2011,04,20,14,23,9.40
2011,04,20,14,24,9.40
2011,04,20,14,25,9.40
2011,04,20,14,26,9.40
2011,04,20,14,27,9.50
2011,04,20,14,28,9.60
2011,04,20,14,29,9.60
2011,04,20,14,30,9.70
2011,04,20,14,31,9.70
2011,04,20,14,32,9.60
2011,04,20,14,33,9.60
2011,04,20,14,34,9.70
2011,04,20,14,35,9.70
2011,04,20,14,36,9.70
2011,04,20,14,37,9.70
2011,04,20,14,38,9.70
2011,04,20,14,39,9.70
2011,04,20,14,40,9.70
2011,04,20,14,41,9.80
2011,04,20,14,42,9.80
2011,04,20,14,43,9.80
2011,04,20,14,44,9.80
2011,04,20,14,45,9.90
2011,04,20,14,46,10.00
2011,04,20,14,47,10.00
2011,04,20,14,48,10.10
2011,04,20,14,49,10.10
2011,04,20,14,50,10.10
2011,04,20,14,51,10.20
2011,04,20,14,52,10.20
2011,04,20,14,53,10.40
2011,04,20,14,54,10.50
2011,04,20,14,55,10.60
2011,04,20,14,56,10.70
2011,04,20,14,57,10.80
2011,04,20,14,58,10.90
2011,04,20,14,59,11.00
2011,04,20,15,00,11.10
2011,04,20,15,01,11.10
2011,04,20,15,02,11.10
2011,04,20,15,03,11.10
2011,04,20,15,04,11.10
2011,04,20,15,05,11.10
2011,04,20,15,06,11.20
2011,04,20,15,07,11.20
2011,04,20,15,08,11.20
2011,04,20,15,09,11.20
2011,04,20,15,10,11.20
2011,04,20,15,11,11.10
2011,04,20,15,12,11.10
2011,04,20,15,13,11.10
2011,04,20,15,14,11.20
2011,04,20,15,15,11.20
2011,04,20,15,16,11.10
2011,04,20,15,17,11.20
2011,04,20,15,18,11.20
2011,04,20,15,19,11.20
2011,04,20,15,20,11.20
2011,04,20,15,21,11.20
2011,04,20,15,22,11.10
2011,04,20,15,23,11.10
2011,04,20,15,24,11.10
2011,04,20,15,25,11.20
2011,04,20,15,26,11.20
2011,04,20,15,27,11.30
2011,04,20,15,28,11.30
2011,04,20,15,29,11.30
2011,04,20,15,30,11.30
2011,04,20,15,31,11.30
2011,04,20,15,32,11.20
2011,04,20,15,33,11.10
2011,04,20,15,34,10.90
2011,04,20,15,35,10.80
2011,04,20,15,36,10.80
2011,04,20,15,37,10.70
2011,04,20,15,38,10.70
2011,04,20,15,39,10.70
2011,04,20,15,40,10.70
2011,04,20,15,41,10.70
2011,04,20,15,42,10.70
2011,04,20,15,43,10.70
2011,04,20,15,44,10.70
2011,04,20,15,45,10.60
2011,04,20,15,46,10.60
2011,04,20,15,47,10.50
2011,04,20,15,48,10.40
2011,04,20,15,49,10.30
2011,04,20,15,50,10.30
2011,04,20,15,51,10.30
2011,04,20,15,52,10.30
2011,04,20,15,53,10.30
2011,04,20,15,54,10.20
2011,04,20,15,55,10.20
2011,04,20,15,56,10.20
2011,04,20,15,57,10.20
2011,04,20,15,58,10.20
2011,04,20,15,59,10.20
2011,04,20,16,00,10.20
2011,04,20,16,01,10.30
2011,04,20,16,02,10.30
2011,04,20,16,03,10.30
2011,04,20,16,04,10.30
2011,04,20,16,05,10.40
2011,04,20,16,06,10.40
2011,04,20,16,07,10.50
2011,04,20,16,08,10.60
2011,04,20,16,09,10.70
2011,04,20,16,10,10.80
2011,04,20,16,11,10.90
2011,04,20,16,12,10.90
2011,04,20,16,13,11.00
2011,04,20,16,14,11.10
2011,04,20,16,15,11.10
2011,04,20,16,16,11.20
2011,04,20,16,17,11.10
2011,04,20,16,18,11.10
2011,04,20,16,19,11.10
2011,04,20,16,20,11.10
2011,04,20,16,21,11.10
2011,04,20,16,22,11.10
2011,04,20,16,23,11.20
2011,04,20,16,24,11.20
2011,04,20,16,25,11.20
2011,04,20,16,26,11.20
2011,04,20,16,27,11.20
2011,04,20,16,28,11.20
2011,04,20,16,29,11.20
2011,04,20,16,30,11.20
2011,04,20,16,31,11.20
2011,04,20,16,32,11.20
2011,04,20,16,33,11.10
2011,04,20,16,34,11.10
2011,04,20,16,35,11.20
2011,04,20,16,36,11.20
2011,04,20,16,37,11.20
2011,04,20,16,38,11.20
2011,04,20,16,39,11.30
2011,04,20,16,40,11.30
2011,04,20,16,41,11.20
2011,04,20,16,42,11.20
2011,04,20,16,43,11.10
2011,04,20,16,44,11.10
2011,04,20,16,45,11.10
2011,04,20,16,46,11.10
2011,04,20,16,47,11.20
2011,04,20,16,48,11.20
2011,04,20,16,49,11.30
2011,04,20,16,50,11.30
2011,04,20,16,51,11.40
2011,04,20,16,52,11.40
2011,04,20,16,53,11.50
2011,04,20,16,54,11.50
2011,04,20,16,55,11.60
2011,04,20,16,56,11.60
2011,04,20,16,57,11.60
2011,04,20,16,58,11.70
2011,04,20,16,59,11.70
2011,04,20,17,00,11.80
2011,04,20,17,01,11.80
2011,04,20,17,02,11.90
2011,04,20,17,03,11.90
2011,04,20,17,04,11.80
2011,04,20,17,05,11.80
2011,04,20,17,06,11.80
2011,04,20,17,07,11.70
2011,04,20,17,08,11.60
2011,04,20,17,09,11.60
2011,04,20,17,10,11.50
2011,04,20,17,11,11.40
2011,04,20,17,12,11.30
2011,04,20,17,13,11.20
2011,04,20,17,14,11.10
2011,04,20,17,15,11.00
2011,04,20,17,16,11.00
2011,04,20,17,17,11.00
2011,04,20,17,18,10.90
2011,04,20,17,19,10.90
2011,04,20,17,20,10.90
2011,04,20,17,21,10.90
2011,04,20,17,22,10.80
2011,04,20,17,23,10.80
2011,04,20,17,24,10.80
2011,04,20,17,25,10.80
2011,04,20,17,26,10.80
2011,04,20,17,27,10.70
2011,04,20,17,28,10.70
2011,04,20,17,29,10.50
2011,04,20,17,30,10.40
2011,04,20,17,31,10.30
2011,04,20,17,32,10.20
2011,04,20,17,33,10.20
2011,04,20,17,34,10.10
2011,04,20,17,35,10.10
2011,04,20,17,36,10.00
2011,04,20,17,37,9.90
2011,04,20,17,38,9.70
2011,04,20,17,39,9.50
2011,04,20,17,40,9.40
2011,04,20,17,41,9.30
2011,04,20,17,42,9.10
2011,04,20,17,43,9.00
2011,04,20,17,44,8.90
2011,04,20,17,45,8.80
2011,04,20,17,46,8.80
2011,04,20,17,47,8.80
2011,04,20,17,48,8.70
2011,04,20,17,49,8.70
2011,04,20,17,50,8.70
2011,04,20,17,51,8.70
2011,04,20,17,52,8.70
2011,04,20,17,53,8.70
2011,04,20,17,54,8.70
2011,04,20,17,55,8.80
2011,04,20,17,56,8.80
2011,04,20,17,57,8.80
2011,04,20,17,58,8.80